Texarkana, AR

11:37 AM CDT on August 18, 2017 (GMT -0500)
Texarkana Regional-Webb

Weather History for KTXK - April, 2013

Change the Weather History Date:

Friday, April 26, 2013

  Actual Average Record
Temperature  
Mean Temperature 60 °F 67 °F  
Max Temperature 70 °F 78 °F 90 °F (1939)
Min Temperature 50 °F 56 °F 38 °F (1992)
Degree Days  
Heating Degree Days 5 2  
Month to date heating degree days 162 103  
Since 1 July heating degree days 2498 2597  
Cooling Degree Days 0 3  
Month to date cooling degree days 57 59  
Year to date cooling degree days 72 82  
Growing Degree Days 10 (Base 50)    
Moisture  
Dew Point 52 °F    
Average Humidity 73    
Maximum Humidity 90    
Minimum Humidity 55    
Precipitation  
Precipitation T in 0.16 in 5.09 in (1958)
Month to date precipitation 2.77 3.35  
Year to date precipitation 10.82 14.94  
Snow  
Snow 0.00 in - - ()
Month to date snowfall 0.0  
Since 1 July snowfall 2.1  
Snow Depth 0.00 in    
Sea Level Pressure  
Sea Level Pressure 30.18 in    
Wind  
Wind Speed 5 mph (ESE)    
Max Wind Speed 13 mph    
Max Gust Speed 16 mph    
Visibility 10 miles    
Events Rain    
T = Trace of Precipitation, MM = Missing Value Source: NWS Daily Summary

Daily Weather History Graph

Daily Weather History Graph

Search for Another Location

Airport or City:

Trip Planner

Search our weather history database for the weather conditions in past years. The results will help you decide how hot, cold, wet, or windy it might be!

Date:

Astronomy

Apr. 26, 2013 Rise Set
Actual Time 6:32 AM CDT 7:55 PM CDT
Civil Twilight 6:06 AM CDT 8:21 PM CDT
Nautical Twilight 5:35 AM CDT 8:52 PM CDT
Astronomical Twilight 5:02 AM CDT 9:25 PM CDT
Moon 9:14 PM CDT (4/26) 7:03 AM CDT (4/26)
Length of Visible Light 14h 15m
Length of Day
13h 22m
Full, 99% of the Moon is Illuminated
Apr 26
Full
May 2
Last Quarter
May 9
New
May 17
First Quarter
May 24
Full

Hourly Weather History & Observations

Time (CDT) Temp. Dew Point Humidity Pressure Visibility Wind Dir Wind Speed Gust Speed Precip Events Conditions
12:53 AM 57.0 °F 41.0 °F 55% 30.23 in 10.0 mi SE 9.2 mph - N/A   Clear
2:53 AM 53.1 °F 44.1 °F 71% 30.22 in 10.0 mi NNE 3.5 mph - N/A   Clear
3:53 AM 51.1 °F 45.0 °F 80% 30.23 in 10.0 mi NE 5.8 mph - N/A   Scattered Clouds
4:53 AM 52.0 °F 46.0 °F 80% 30.24 in 10.0 mi NE 3.5 mph - N/A   Overcast
5:53 AM 53.1 °F 45.0 °F 74% 30.23 in 10.0 mi East 3.5 mph - N/A   Overcast
6:53 AM 53.1 °F 45.0 °F 74% 30.22 in 10.0 mi East 3.5 mph - N/A   Overcast
7:53 AM 55.0 °F 45.0 °F 69% 30.22 in 10.0 mi SE 8.1 mph - N/A   Overcast
8:20 AM 55.4 °F 46.4 °F 72% 30.22 in 10.0 mi SE 8.1 mph - N/A   Overcast
8:42 AM 57.2 °F 46.4 °F 67% 30.21 in 10.0 mi ESE 8.1 mph - N/A   Overcast
8:53 AM 57.0 °F 46.0 °F 67% 30.21 in 10.0 mi SE 8.1 mph - N/A   Overcast
9:12 AM 57.2 °F 46.4 °F 67% 30.22 in 10.0 mi SE 9.2 mph - N/A   Overcast
9:53 AM 57.9 °F 46.9 °F 67% 30.24 in 10.0 mi ESE 3.5 mph - N/A   Overcast
10:53 AM 57.9 °F 48.0 °F 70% 30.24 in 10.0 mi SE 4.6 mph - N/A   Overcast
11:53 AM 57.9 °F 51.1 °F 78% 30.24 in 10.0 mi Variable 3.5 mph - 0.00 in   Overcast
12:07 PM 57.2 °F 51.8 °F 82% 30.22 in 10.0 mi SE 4.6 mph - N/A   Overcast
12:53 PM 60.1 °F 51.1 °F 72% 30.22 in 10.0 mi Calm Calm - N/A   Overcast
1:34 PM 59.0 °F 53.6 °F 82% 30.21 in 2.0 mi Calm Calm - 0.00 in Rain Light Rain
1:44 PM 59.0 °F 55.4 °F 88% 30.21 in 6.0 mi SSE 4.6 mph - 0.00 in Rain Light Rain
1:53 PM 59.0 °F 55.0 °F 87% 30.20 in 7.0 mi SSE 4.6 mph - 0.00 in   Overcast
2:35 PM 62.6 °F 55.4 °F 77% 30.17 in 10.0 mi SSE 9.2 mph - N/A   Overcast
2:53 PM 62.1 °F 55.9 °F 80% 30.17 in 10.0 mi SSE 8.1 mph - N/A   Overcast
3:53 PM 66.0 °F 57.9 °F 75% 30.13 in 10.0 mi SE 10.4 mph - N/A   Mostly Cloudy
4:53 PM 69.1 °F 60.1 °F 73% 30.13 in 10.0 mi SE 8.1 mph - N/A   Overcast
5:53 PM 69.1 °F 60.1 °F 73% 30.12 in 10.0 mi SE 5.8 mph - N/A   Mostly Cloudy
6:53 PM 68.0 °F 60.1 °F 76% 30.10 in 10.0 mi East 4.6 mph - N/A   Overcast
7:53 PM 64.9 °F 59.0 °F 81% 30.08 in 10.0 mi ENE 5.8 mph - N/A   Mostly Cloudy
8:53 PM 63.0 °F 57.0 °F 81% 30.09 in 10.0 mi East 8.1 mph - N/A   Overcast
9:49 PM 62.6 °F 57.2 °F 82% 30.12 in 10.0 mi ENE 4.6 mph - N/A   Overcast
9:53 PM 62.1 °F 57.0 °F 84% 30.11 in 10.0 mi ENE 5.8 mph - N/A   Overcast
10:53 PM 61.0 °F 57.0 °F 87% 30.10 in 10.0 mi Variable 4.6 mph - N/A   Overcast
11:53 PM 61.0 °F 57.0 °F 87% 30.10 in 10.0 mi East 3.5 mph - N/A   Overcast